| time (UTC) | temp F | wind direction | speed MPH | gust MPH | rain 1hr in | rain 24hr in | rain mn in | humidity % | barometer mb |
| 20260504044541 | 53 | 213 | 1.0 | 4.0 | 0.00 | 0.00 | 0.00 | 53 | 1002.3 |
| 20260504043036 | 54 | 157 | 1.0 | 4.0 | 0.00 | 0.00 | 0.00 | 51 | 1002.5 |
| 20260504041532 | 55 | 214 | 0.0 | 1.0 | 0.00 | 0.00 | 0.00 | 50 | 1002.7 |
| 20260504040031 | 56 | 190 | 1.0 | 4.0 | 0.00 | 0.00 | 0.00 | 49 | 1003.0 |
| 20260504034544 | 56 | 144 | 0.0 | 3.0 | 0.00 | 0.00 | 0.00 | 49 | 1003.3 |
| 20260504033028 | 57 | 210 | 0.0 | 3.0 | 0.00 | 0.00 | 0.00 | 47 | 1003.5 |
| 20260504031526 | 56 | 153 | 0.0 | 1.0 | 0.00 | 0.00 | 0.00 | 48 | 1003.6 |
| 20260504030039 | 56 | 237 | 0.0 | 2.0 | 0.00 | 0.00 | 0.00 | 47 | 1003.8 |
| 20260504024524 | 56 | 163 | 0.0 | 4.0 | 0.00 | 0.00 | 0.00 | 48 | 1003.9 |
| 20260504023026 | 56 | 231 | 0.0 | 1.0 | 0.00 | 0.00 | 0.00 | 48 | 1004.0 |
| 20260504021522 | 56 | 230 | 0.0 | 1.0 | 0.00 | 0.00 | 0.00 | 48 | 1003.9 |
| 20260504020022 | 56 | 63 | 0.0 | 0.0 | 0.00 | 0.00 | 0.00 | 49 | 1003.9 |
| 20260504014534 | 57 | 63 | 0.0 | 0.0 | 0.00 | 0.00 | 0.00 | 47 | 1003.9 |
| 20260504013022 | 59 | 65 | 0.0 | 1.0 | 0.00 | 0.00 | 0.00 | 45 | 1004.0 |
| 20260504011521 | 61 | 65 | 0.0 | 1.0 | 0.00 | 0.00 | 0.00 | 42 | 1003.9 |
| 20260504010022 | 64 | 83 | 0.0 | 2.0 | 0.00 | 0.00 | 0.00 | 40 | 1003.9 |
| 20260504004520 | 66 | 103 | 1.0 | 3.0 | 0.00 | 0.00 | 0.00 | 38 | 1003.9 |
| 20260504003028 | 68 | 269 | 0.0 | 4.0 | 0.00 | 0.00 | 0.00 | 38 | 1004.1 |
| 20260504001518 | 69 | 6 | 0.0 | 6.0 | 0.00 | 0.00 | 0.00 | 37 | 1004.2 |
| 20260504000018 | 69 | 67 | 2.0 | 8.0 | 0.00 | 0.00 | 0.00 | 33 | 1004.1 |
| 20260503234530 | 70 | 333 | 4.0 | 12.0 | 0.00 | 0.00 | 0.00 | 34 | 1004.1 |
| 20260503233016 | 70 | 310 | 9.0 | 13.0 | 0.00 | 0.00 | 0.00 | 32 | 1004.2 |
| 20260503231515 | 70 | 334 | 5.0 | 12.0 | 0.00 | 0.00 | 0.00 | 30 | 1004.3 |
| 20260503230014 | 70 | 325 | 2.0 | 11.0 | 0.00 | 0.00 | 0.00 | 32 | 1004.3 |
| 20260503224513 | 72 | 318 | 3.0 | 14.0 | 0.00 | 0.00 | 0.00 | 33 | 1004.2 |
| 20260503223013 | 71 | 323 | 5.0 | 19.0 | 0.00 | 0.00 | 0.00 | 32 | 1004.3 |
| 20260503221513 | 71 | 320 | 6.0 | 18.0 | 0.00 | 0.00 | 0.00 | 34 | 1004.3 |
| 20260503220011 | 71 | 302 | 3.0 | 12.0 | 0.00 | 0.00 | 0.00 | 32 | 1004.3 |
| 20260503214513 | 71 | 359 | 5.0 | 21.0 | 0.00 | 0.00 | 0.00 | 31 | 1004.4 |
| 20260503213008 | 71 | 319 | 3.0 | 13.0 | 0.00 | 0.00 | 0.00 | 33 | 1004.4 |
| 20260503211507 | 71 | 330 | 7.0 | 21.0 | 0.00 | 0.00 | 0.00 | 33 | 1004.6 |
| 20260503210007 | 70 | 335 | 4.0 | 19.0 | 0.00 | 0.00 | 0.00 | 36 | 1004.7 |
| 20260503204505 | 71 | 326 | 10.0 | 17.0 | 0.00 | 0.00 | 0.00 | 36 | 1004.9 |
| 20260503203007 | 70 | 329 | 10.0 | 20.0 | 0.00 | 0.00 | 0.00 | 34 | 1005.1 |
| 20260503201504 | 70 | 335 | 10.0 | 22.0 | 0.00 | 0.00 | 0.00 | 36 | 1005.1 |
| 20260503200004 | 70 | 340 | 10.0 | 19.0 | 0.00 | 0.00 | 0.00 | 34 | 1005.2 |
| 20260503194502 | 70 | 311 | 5.0 | 17.0 | 0.00 | 0.00 | 0.00 | 38 | 1005.2 |
| 20260503193000 | 70 | 331 | 10.0 | 19.0 | 0.00 | 0.00 | 0.00 | 34 | 1005.5 |
| 20260503191632 | 69 | 340 | 10.0 | 21.0 | 0.00 | 0.00 | 0.00 | 35 | 1005.5 |
| 20260503190058 | 70 | 13 | 7.0 | 19.0 | 0.00 | 0.00 | 0.00 | 37 | 1005.6 |
| 20260503184600 | 69 | 3 | 12.0 | 18.0 | 0.00 | 0.00 | 0.00 | 37 | 1005.5 |
| 20260503183114 | 69 | 359 | 10.0 | 24.0 | 0.00 | 0.00 | 0.00 | 40 | 1005.6 |
| 20260503181556 | 69 | 338 | 8.0 | 21.0 | 0.00 | 0.00 | 0.00 | 37 | 1005.7 |
| 20260503180054 | 68 | 6 | 9.0 | 24.0 | 0.00 | 0.00 | 0.00 | 37 | 1005.9 |
| 20260503174552 | 67 | 323 | 11.0 | 21.0 | 0.00 | 0.00 | 0.00 | 38 | 1006.0 |
| 20260503173115 | 68 | 335 | 13.0 | 19.0 | 0.00 | 0.00 | 0.00 | 39 | 1006.0 |
| 20260503171550 | 67 | 307 | 8.0 | 14.0 | 0.00 | 0.00 | 0.00 | 46 | 1006.1 |
| 20260503081552 | 57 | 195 | 15.0 | 21.0 | 0.00 | 0.00 | 0.00 | 51 | 1005.8 |
| 20260503071539 | 57 | 206 | 7.0 | 13.0 | 0.00 | 0.00 | 0.00 | 48 | 1008.0 |